RUK905 EGSS-EICK

Flight info

Callsign RUK905
Flight time N/A
Altitude 36000
Route NUGBO M183 SILVA P86 DIDZA N14 OKSAW DCT BIBPE DCT TIGWE DCT FELCA DCT NICXI DCT OFSOX DCT BANBA DCT VAPAL VAPAL1F
Aircraft B38M/M-SDE1FGHILORVWXY/HB1

Departure

Time N/A
Airport London Stansted Airport (EGSS)

Arrival

Time 2026-04-30 17:59
Airport Cork International Airport (EICK)
Time Latitude Longitude Altitude Speed Heading
2026-04-30 17:39 51.93525 -6.67019 25273 ft 359 kts 258°
2026-04-30 17:41 51.91982 -7.00762 21739 ft 394 kts 259°
2026-04-30 17:42 51.91567 -7.09511 20839 ft 389 kts 259°
2026-04-30 17:42 51.90936 -7.22526 19499 ft 383 kts 259°
2026-04-30 17:43 51.90514 -7.31064 18609 ft 381 kts 259°
2026-04-30 17:44 51.89873 -7.43811 17190 ft 373 kts 258°
2026-04-30 17:44 51.89235 -7.56231 15878 ft 366 kts 258°
2026-04-30 17:46 51.90215 -7.76179 13780 ft 365 kts 289°
2026-04-30 17:47 51.94210 -7.91069 11694 ft 360 kts 288°
2026-04-30 17:48 51.97964 -8.05299 10081 ft 311 kts 288°
2026-04-30 17:48 52.00377 -8.14500 8927 ft 286 kts 288°
2026-04-30 17:49 52.03519 -8.26570 7499 ft 289 kts 288°
2026-04-30 17:50 52.06629 -8.38568 6168 ft 284 kts 289°
2026-04-30 17:51 52.06782 -8.47036 5604 ft 236 kts 246°
2026-04-30 17:52 52.05249 -8.54171 4721 ft 199 kts 245°
2026-04-30 17:53 52.00600 -8.58408 3757 ft 179 kts 167°
2026-04-30 17:54 51.95878 -8.56123 2831 ft 168 kts 157°
2026-04-30 17:55 51.92207 -8.53940 2083 ft 132 kts 156°
2026-04-30 17:56 51.88819 -8.51907 1345 ft 131 kts 157°
2026-04-30 17:57 51.86212 -8.50354 775 ft 131 kts 155°
2026-04-30 17:58 51.83937 -8.48999 480 ft 67 kts 160°
2026-04-30 17:59 51.83292 -8.48620 473 ft 11 kts 174°
2026-04-30 18:00 51.83463 -8.48717 470 ft 21 kts 341°
2026-04-30 18:00 51.83921 -8.48988 475 ft 28 kts 340°
2026-04-30 18:01 51.84389 -8.49263 490 ft 41 kts 340°
2026-04-30 18:02 51.84797 -8.49315 486 ft 14 kts 69°
2026-04-30 18:02 51.84840 -8.49078 492 ft 0 kts 70°